Location: Deneb Observatory
(47.2267°N, 100.4953°W)
Time: 19:01:24
(UTC-05:00)

Iridium 66 - Visible Passes

Search period start: 24 March 2017 00:00
Search period end: 03 April 2017 00:00
Orbit: 776 x 779 km, 86.4° (Epoch: 23 March)

Date Brightness Start Highest point End Pass type
(mag) Time Alt. Az. Time Alt. Az. Time Alt. Az.
24 Mar 7.3 06:25:24 10° SSE 06:30:20 45° E 06:35:17 10° NNE visible
25 Mar 8.3 05:52:44 10° SE 05:57:01 26° E 06:01:18 10° NNE visible
26 Mar 9.0 05:20:51 10° ESE 05:23:49 16° ENE 05:26:49 10° NE visible
26 Mar 6.0 06:58:40 10° S 07:03:52 75° W 07:09:07 10° N visible
27 Mar 6.6 06:25:14 10° S 06:30:22 63° E 06:35:33 10° N visible
28 Mar 7.7 05:52:16 10° SSE 05:56:59 36° E 06:01:44 10° NNE visible
29 Mar 8.6 05:19:52 10° SE 05:23:43 21° E 05:27:36 10° NNE visible
30 Mar 9.0 04:48:31 10° E 04:50:35 12° ENE 04:52:40 10° NE visible
30 Mar 6.1 06:25:15 10° S 06:30:28 88° E 06:35:43 10° N visible
31 Mar 7.0 05:51:59 10° SSE 05:57:01 50° E 06:02:03 10° NNE visible
01 Apr 8.0 05:19:13 10° SE 05:23:40 29° E 05:28:08 10° NNE visible
02 Apr 8.7 04:47:07 10° ESE 04:50:28 17° ENE 04:53:48 10° NE visible
02 Apr 6.0 06:25:25 10° SSW 06:30:36 67° W 06:35:49 10° N visible
